Follow iAlert.com on twitter @ialertcom
Search For Active Alerts in Your Area  
  Hi Guest:  [ Sign-up / Services ] [ Login ]

Current weather by "City, St" or "zip code"  
 

Advertise Here

Current Conditions: Philadelphia, Northeast Philadelphia Airport, PA

Overcast


68.0 F

Last Updated on Sep 20 2018, 10:54 pm EDT
Humidity: 76%
Wind Speed: SE 4.6 mph
Barometer 30.27 in
Dewpoint: 60.1 F
Visibility: 10.00 mi
Precip: --
Heat Index: NA
Wind Chill: NA
Current conditions at:

Philadelphia, Northeast Philadelphia Airport, PA (KPNE)

Lat: 40.07 Lon: 75.013

Local Radar Image active severe weather and emergency alerts image image weather storm and storm spotter reports image weather observation monitoring service image
Local
Radar
Active
Alerts
Storm Reports Obs
Monitoring

iAlert Weather and Emergency Alert Notification Services:


ialert severe weather and emergency alerts by text message and email ialert daily weather forecast by email and text message service ialert real-time weather-observation monitoring and alert notification service ialert storm report monitoring alert notification

Observation History for Philadelphia, Northeast Philadelphia Airport, PA


Time Wind
(mph)
Vis
(mi)
Weather Precip (in) Temperature (F) Relative
Humidity
Wind
Chill
(°F)
Heat
Index
(°F)
Pressure
Air Dwpt altimeter
(in)
sea level
(mb)
10:54 pm EDT SE 4.6 10.00 Overcast -- 68.0 60.1 76% NA NA 30.27 1024.9
9:54 pm EDT SE 5.8 10.00 Overcast -- 69.0 60.1 73% NA NA 30.26 1024.7
8:54 pm EDT SE 8.1 10.00 Overcast -- 69.0 61.0 76% NA NA 30.25 1024.2
7:54 pm EDT SE 9.2 10.00 Overcast -- 70.0 61.0 73% NA NA 30.24 1024.0
6:54 pm EDT SE 8.1 10.00 Overcast -- 72.0 61.0 68% NA NA 30.23 1023.6
5:54 pm EDT SE 9.2 10.00 Mostly Cloudy -- 74.0 62.1 67% NA NA 30.22 1023.2
4:54 pm EDT SE 5.8 10.00 Overcast -- 73.0 62.1 69% NA NA 30.22 1023.2
3:54 pm EDT SE 10.4 10.00 Overcast -- 73.0 62.1 69% NA NA 30.22 1023.0
2:54 pm EDT S 4.6 10.00 Overcast -- 73.0 62.1 69% NA NA 30.22 1023.2
1:54 pm EDT SE 6.9 10.00 Overcast -- 74.0 62.1 67% NA NA 30.23 1023.5
12:54 pm EDT SE 6.9 10.00 Overcast -- 72.0 62.1 71% NA NA 30.25 1024.1
11:54 am EDT E 8.1 10.00 Overcast -- 73.0 62.1 69% NA NA 30.25 1024.1
10:54 am EDT SE 8.1 10.00 Overcast -- 72.0 62.1 71% NA NA 30.24 1023.9
9:54 am EDT SE 8.1 10.00 Overcast -- 70.0 61.0 73% NA NA 30.23 1023.6
8:54 am EDT E 6.9 10.00 Overcast -- 69.0 61.0 76% NA NA 30.22 1023.0
7:54 am EDT E 6.9 10.00 Overcast -- 68.0 63.0 84% NA NA 30.19 1022.1
6:54 am EDT E 10.4 10.00 Overcast -- 69.0 63.0 81% NA NA 30.17 1021.4
5:54 am EDT E 11.5 10.00 Overcast -- 70.0 63.0 79% NA NA 30.12 1019.9
4:54 am EDT E 9.2 10.00 Overcast -- 70.0 64.9 84% NA NA 30.10 1019.2
3:54 am EDT SE 5.8 10.00 Mostly Cloudy -- 71.0 66.0 84% NA NA 30.09 1018.9
2:54 am EDT 5.8 10.00 Overcast -- 72.0 66.9 84% NA NA 30.09 1018.6
1:54 am EDT SE 3.5 10.00 Overcast -- 72.0 66.9 84% NA NA 30.08 1018.6
12:54 am EDT N 0.0 10.00 Overcast -- 72.0 66.9 84% NA NA 30.08 1018.3
11:54 pm EDT SE 5.8 10.00 Overcast -- 73.0 68.0 84% NA NA 30.07 1018.1

Regional Weather Observation


Doylestown, Doylestown Airport, PA (KDYL)

Overcast
65.0 F

Quakertown Airport, PA (KUKT)

Overcast
66.0 F

Pottstown, Pottstown Limerick Airport, PA (KPTW)

Overcast
66.0 F

Allentown Queen City Municipal Airport, PA (KXLL)

Overcast
NULL F

Allentown, Lehigh Valley International Airport, PA (KABE)

Overcast
68.0 F

Trenton, Mercer County Airport, NJ (KTTN)

Overcast
66.0 F

Advertise Here